Probability
39 32 55 68 65 68 65 61 61 58 58 55 39 35 45 48 52 52 45 45 45 48 48 35 39 42 39 39 45 35 35 52 52 52 61 55 61 68 68 61 65 45 55
26 26 61 61 68 68 68 65 65 58 48 55 52 42 48 48 45 48 45 45 45 45 45 39 35 42 39 39 42 39 42 42 39 52 58 55 55 65 65 65 65 39 58
16 23 45 52 58 68 68 68 65 52 48 48 42 48 42 35 42 48 45 45 42 39 39 29 29 39 42 35 45 42 39 45 42 55 58 45 42 58 58 58 61 61 61
13 23 29 55 52 52 55 58 55 45 45 48 42 52 39 35 42 45 42 35 35 32 32 32 35 32 39 32 29 42 32 35 52 52 32 13 19 48 55 52 55 52 55
13 26 39 55 42 39 45 48 52 48 45 45 39 45 45 39 42 42 39 39 35 35 39 39 35 29 39 29 29 32 39 48 48 45 23 13 19 42 45 52 52 55 58
19 23 35 48 42 35 42 52 45 35 42 39 39 48 45 45 35 32 39 45 48 42 45 42 35 32 42 32 32 32 32 39 35 16 23 13 10 42 48 45 45 52 55
16 19 26 48 48 42 45 42 35 35 39 42 45 39 39 39 35 29 32 39 39 45 48 45 39 39 35 39 29 29 26 35 29 16 13 6 26 45 45 48 42 48 52
13 32 32 45 48 42 42 39 35 39 45 45 39 42 48 42 39 39 32 39 35 35 45 45 45 52 42 39 35 39 42 32 13 13 6 10 29 42 45 45 39 52 52
13 23 26 26 39 39 39 42 42 39 35 39 29 35 42 48 39 35 39 42 42 35 42 45 45 42 42 42 35 42 39 52 26 13 10 10 29 39 45 39 39 39 39
10 10 19 19 23 26 26 32 45 39 42 35 32 35 32 42 35 35 39 52 39 35 39 45 35 35 42 35 42 42 35 42 29 26 16 16 39 45 42 39 35 42 39
10 16 16 23 26 23 16 26 42 45 45 39 39 42 39 42 32 32 32 42 42 45 52 45 45 39 32 32 39 45 39 26 26 23 19 23 39 42 42 42 42 45 39
23 16 13 13 19 19 19 32 29 32 48 45 55 58 55 42 45 16 39 45 52 52 52 52 52 45 42 19 29 42 26 26 26 23 16 42 42 42 35 42 45 42 39
29 26 16 13 19 23 23 23 35 35 58 45 52 52 45 42 35 32 35 42 48 48 39 48 42 29 32 32 29 23 26 26 26 19 16 45 42 35 42 39 45 42 39
26 23 23 26 32 42 35 35 39 35 39 42 55 45 48 48 48 39 52 45 45 52 48 39 48 45 42 32 26 23 23 26 26 23 23 45 42 39 35 45 42 42 45
29 26 32 39 48 42 48 52 39 39 39 52 52 52 48 52 48 48 48 55 48 48 45 55 48 42 39 35 35 26 32 26 23 23 23 32 39 39 39 45 52 48 42
19 23 29 35 52 52 52 55 52 45 58 52 55 52 48 52 52 58 58 65 58 58 52 55 55 52 45 48 45 35 45 35 26 29 29 26 32 32 35 35 39 45 42
23 29 45 45 55 61 58 58 52 42 32 42 52 52 48 48 55 58 55 58 58 52 65 55 52 55 45 45 52 45 48 48 39 39 39 32 19 35 32 39 35 42 45
35 45 48 16 55 65 68 65 55 52 55 52 52 52 52 48 48 55 55 55 65 61 58 61 55 58 52 52 55 45 52 52 39 35 32 26 26 23 32 35 42 45 39
52 58 55 61 65 68 71 65 58 61 61 68 55 52 52 45 45 48 58 61 58 61 58 48 61 58 52 52 52 42 45 48 45 35 29 29 35 39 19 29 42 39 35
48 71 71 74 71 68 68 71 71 68 68 65 55 52 52 45 48 52 61 58 55 52 58 58 52 61 58 52 39 35 45 42 42 39 32 29 35 35 32 29 32 29 39
48 68 71 74 74 71 74 68 65 61 68 71 58 48 45 45 52 55 42 55 61 55 55 48 45 55 55 61 55 52 42 45 48 42 45 35 35 42 32 29 26 29 29
48 68 74 74 77 77 77 81 81 68 65 68 68 55 48 52 52 39 55 52 52 52 55 58 55 52 48 55 52 48 42 45 48 35 45 39 35 35 35 23 23 32 26
52 55 55 71 77 74 74 74 71 74 68 65 68 71 58 58 55 55 48 48 55 52 52 55 52 52 55 52 55 42 42 42 45 48 42 39 39 32 35 35 35 32 29
48 58 65 71 74 77 74 74 77 74 68 68 74 74 68 65 58 48 48 52 55 48 52 48 55 55 55 52 48 52 45 42 39 39 42 39 35 39 39 35 29 29 29
45 58 65 71 71 74 77 81 81 81 74 68 81 74 77 68 65 52 65 65 65 61 55 52 55 52 55 52 45 42 48 48 45 45 35 35 35 32 35 35 32 32 32
29 45 55 68 74 74 77 77 77 81 81 81 77 77 77 71 65 58 52 65 65 68 65 58 58 55 55 52 52 55 45 42 45 39 32 35 32 35 26 29 32 32 26
Height
5870 5868 5866 5865 5864 5862 5862 5862 5863 5864 5864 5865 5865 5866 5866 5866 5867 5867 5868 5869 5869 5870 5871 5872 5872 5873 5873 5874 5874 5874 5874 5874 5874 5874 5875 5876 5877 5878 5879 5880 5881 5882 5883
5870 5868 5867 5866 5864 5863 5863 5863 5863 5864 5864 5864 5864 5865 5865 5865 5866 5866 5867 5868 5868 5869 5870 5870 5871 5872 5872 5872 5872 5872 5871 5871 5871 5872 5873 5874 5875 5876 5877 5878 5880 5881 5882
5870 5869 5867 5866 5865 5864 5864 5863 5864 5864 5864 5864 5864 5864 5864 5864 5865 5865 5866 5867 5867 5868 5869 5869 5870 5870 5871 5870 5870 5870 5869 5869 5869 5869 5870 5872 5873 5875 5876 5877 5879 5880 5881
5871 5869 5867 5866 5866 5865 5864 5864 5864 5864 5863 5863 5862 5862 5863 5863 5864 5864 5865 5866 5866 5867 5867 5868 5869 5869 5869 5869 5869 5868 5867 5867 5866 5867 5868 5869 5871 5873 5874 5875 5877 5878 5879
5871 5869 5867 5866 5866 5865 5864 5864 5864 5863 5863 5862 5862 5861 5861 5861 5862 5863 5864 5865 5865 5866 5866 5867 5867 5867 5867 5867 5867 5867 5865 5865 5865 5866 5866 5868 5870 5871 5872 5874 5875 5877 5878
5871 5869 5867 5866 5866 5865 5864 5864 5863 5863 5863 5862 5861 5860 5859 5859 5861 5862 5863 5864 5865 5865 5866 5866 5866 5866 5866 5866 5866 5865 5864 5864 5863 5865 5866 5867 5869 5870 5872 5873 5874 5875 5876
5871 5870 5868 5867 5866 5865 5864 5864 5863 5863 5863 5862 5861 5860 5859 5859 5861 5862 5863 5863 5864 5865 5865 5865 5866 5865 5865 5865 5865 5864 5863 5864 5864 5864 5866 5867 5868 5870 5871 5872 5873 5874 5875
5872 5870 5869 5867 5866 5866 5865 5864 5863 5863 5862 5862 5861 5861 5860 5860 5861 5862 5863 5863 5864 5864 5864 5865 5865 5864 5864 5864 5864 5863 5863 5864 5864 5865 5865 5867 5868 5869 5870 5871 5872 5872 5873
5873 5871 5870 5868 5867 5866 5864 5863 5863 5862 5863 5862 5862 5862 5861 5861 5862 5862 5863 5863 5863 5864 5864 5864 5864 5863 5863 5863 5863 5862 5863 5863 5864 5864 5865 5866 5867 5868 5869 5869 5870 5871 5871
5874 5872 5871 5869 5868 5866 5865 5863 5863 5863 5863 5863 5863 5862 5862 5862 5862 5862 5863 5863 5863 5863 5863 5863 5863 5862 5862 5862 5861 5861 5862 5862 5863 5863 5864 5865 5866 5866 5867 5868 5869 5869 5870
5876 5874 5872 5870 5868 5867 5865 5864 5863 5863 5863 5863 5863 5863 5863 5863 5863 5863 5862 5862 5863 5863 5862 5862 5862 5862 5861 5861 5861 5860 5860 5861 5862 5862 5863 5864 5865 5865 5866 5866 5867 5867 5868
5877 5875 5873 5871 5869 5867 5866 5865 5864 5864 5864 5864 5864 5864 5864 5864 5863 5863 5863 5862 5862 5862 5862 5862 5861 5861 5861 5860 5860 5860 5860 5860 5862 5862 5862 5863 5863 5864 5864 5865 5865 5865 5866
5879 5877 5874 5872 5870 5868 5867 5866 5865 5865 5865 5865 5865 5865 5864 5864 5864 5864 5863 5863 5862 5862 5861 5860 5861 5860 5860 5860 5859 5859 5860 5860 5860 5860 5861 5862 5862 5862 5863 5863 5863 5863 5864
5880 5878 5876 5874 5872 5870 5868 5866 5865 5866 5866 5866 5866 5865 5865 5865 5865 5864 5864 5864 5863 5862 5861 5860 5860 5860 5860 5860 5860 5859 5859 5859 5859 5860 5860 5860 5860 5860 5860 5861 5861 5861 5861
5882 5880 5878 5876 5874 5871 5869 5867 5866 5866 5866 5867 5867 5867 5866 5866 5865 5865 5864 5864 5863 5862 5862 5861 5860 5860 5860 5859 5859 5859 5859 5859 5859 5859 5859 5859 5858 5858 5859 5859 5859 5859 5859
5883 5881 5880 5878 5876 5874 5872 5870 5869 5869 5869 5869 5868 5868 5867 5867 5866 5866 5865 5864 5864 5863 5862 5861 5861 5860 5860 5860 5860 5859 5859 5859 5858 5858 5858 5858 5857 5857 5856 5857 5857 5857 5857
5885 5883 5882 5880 5879 5877 5875 5874 5872 5872 5871 5870 5870 5869 5868 5868 5867 5866 5866 5865 5864 5862 5861 5861 5861 5861 5860 5860 5859 5858 5858 5858 5858 5857 5857 5856 5856 5855 5854 5855 5855 5855 5854
5887 5885 5884 5882 5881 5879 5878 5877 5875 5874 5873 5872 5871 5870 5869 5869 5868 5867 5866 5865 5865 5863 5862 5862 5861 5861 5860 5860 5859 5858 5857 5857 5857 5856 5855 5855 5854 5853 5853 5852 5853 5853 5852
5888 5887 5885 5884 5882 5881 5880 5879 5877 5876 5875 5874 5873 5871 5870 5870 5869 5868 5867 5866 5865 5864 5863 5862 5861 5861 5860 5859 5857 5857 5857 5856 5856 5855 5854 5853 5852 5851 5850 5850 5850 5850 5850
5890 5888 5887 5885 5884 5883 5881 5880 5879 5878 5876 5875 5874 5872 5871 5870 5869 5868 5867 5866 5865 5864 5863 5862 5861 5860 5859 5858 5857 5856 5856 5855 5854 5853 5852 5851 5850 5849 5849 5848 5848 5848 5847
5891 5889 5888 5887 5885 5884 5883 5881 5880 5879 5877 5876 5874 5873 5872 5870 5869 5868 5867 5866 5865 5864 5863 5862 5861 5860 5858 5857 5856 5855 5854 5853 5852 5851 5851 5850 5849 5848 5847 5846 5845 5845 5845
5891 5890 5889 5888 5886 5885 5883 5882 5880 5879 5878 5876 5874 5873 5872 5870 5869 5868 5867 5865 5864 5863 5862 5861 5860 5859 5857 5856 5855 5854 5853 5852 5850 5850 5848 5848 5847 5846 5845 5844 5843 5842 5841
5891 5890 5889 5888 5887 5885 5884 5883 5881 5880 5878 5877 5875 5873 5872 5870 5869 5868 5866 5865 5863 5862 5861 5860 5858 5857 5856 5854 5853 5852 5851 5849 5848 5847 5846 5845 5844 5843 5842 5841 5840 5839 5838
5891 5890 5889 5888 5887 5885 5884 5883 5881 5880 5878 5877 5875 5873 5872 5870 5868 5867 5865 5863 5862 5861 5859 5858 5857 5855 5854 5852 5851 5849 5848 5846 5846 5845 5844 5842 5841 5841 5839 5838 5836 5836 5835
5890 5890 5889 5888 5886 5885 5884 5882 5881 5879 5878 5876 5874 5873 5871 5869 5867 5866 5864 5862 5861 5859 5857 5856 5854 5853 5851 5850 5848 5846 5845 5843 5843 5842 5840 5839 5838 5837 5836 5834 5833 5833 5832
5890 5889 5888 5887 5886 5885 5883 5882 5880 5878 5877 5875 5873 5871 5870 5868 5866 5864 5862 5860 5859 5857 5855 5853 5852 5850 5848 5846 5845 5843 5841 5840 5839 5838 5837 5836 5834 5833 5832 5831 5830 5829 5827
Wind_Speed
8 8 7 6 4 3 1 0 1 2 3 4 5 6 7 7 7 8 8 8 7 7 8 8 8 8 8 8 9 9 10 10 10 9 9 10 9 8 8 7 7 7 7
9 8 8 6 4 3 1 0 1 1 2 4 5 5 6 7 7 7 7 7 7 7 8 8 8 8 9 9 10 10 10 10 10 9 9 9 9 8 8 8 8 8 8
8 8 7 7 5 4 2 1 1 2 2 3 4 4 5 6 6 7 7 7 8 8 8 8 8 8 8 9 10 10 10 10 9 9 9 10 9 9 8 8 8 8 8
9 8 7 7 6 4 2 1 1 1 2 3 3 4 5 6 7 7 7 7 7 8 8 8 8 8 8 9 9 9 9 9 8 9 9 10 9 9 9 9 8 8 8
9 9 8 6 6 4 3 2 2 2 2 2 2 3 5 6 6 7 7 6 6 7 6 7 8 8 8 8 8 8 8 7 6 7 8 8 8 8 9 8 8 8 8
10 9 8 6 6 5 3 2 2 2 2 2 2 3 4 6 6 6 6 5 5 5 5 5 6 6 6 7 7 7 7 6 5 6 6 6 6 7 7 7 7 8 9
10 9 8 7 6 5 4 2 2 2 2 1 1 2 2 3 4 4 4 5 4 4 4 4 5 5 5 6 7 7 7 7 5 6 6 6 5 6 6 7 7 7 9
10 10 9 7 6 5 4 3 2 1 1 0 1 1 1 1 2 2 3 4 4 4 4 4 5 5 5 6 7 6 6 6 6 6 7 6 6 6 5 6 6 7 8
11 10 10 9 7 6 5 4 3 2 1 1 1 1 1 1 1 0 2 3 3 4 4 4 4 5 5 6 6 5 6 6 6 6 6 7 6 6 5 5 6 7 8
12 11 11 9 8 6 5 5 3 2 2 1 2 2 2 3 2 1 1 2 2 3 4 4 4 4 5 5 5 5 6 6 6 6 6 6 6 6 6 6 6 7 8
12 12 12 11 8 7 6 6 5 3 2 2 2 3 3 3 3 2 2 1 2 3 3 3 4 5 5 5 5 6 7 6 7 6 6 7 7 7 7 7 7 8 8
13 13 12 12 10 8 7 7 6 5 4 4 4 4 4 3 3 3 2 2 2 3 3 4 4 4 5 5 5 6 7 7 5 5 6 7 7 7 7 7 8 8 9
13 13 13 12 11 10 9 7 6 5 5 5 4 4 5 4 3 3 3 3 3 3 4 4 4 5 5 5 5 5 5 6 6 6 6 7 7 8 7 7 8 9 9
12 13 13 12 12 11 10 8 6 5 6 6 5 6 6 5 4 4 4 4 3 3 3 4 4 5 4 4 4 5 4 5 4 5 5 6 7 8 8 8 9 10 10
12 12 12 12 13 12 11 9 7 7 7 7 6 6 7 7 6 6 5 5 4 4 4 4 4 5 4 4 4 5 5 5 5 4 5 6 7 8 8 9 10 10 10
12 12 12 12 13 13 12 11 10 9 9 8 8 8 8 8 7 7 7 7 7 7 5 4 5 6 6 6 6 6 6 6 6 6 6 7 7 8 8 9 9 9 10
12 12 12 11 12 12 12 12 12 11 10 9 9 9 9 10 9 8 8 7 7 7 7 6 6 6 6 6 7 6 7 6 7 7 7 8 8 8 8 8 9 9 9
12 12 11 11 11 12 11 11 11 11 11 10 9 9 8 8 9 9 9 9 9 9 9 8 8 7 7 7 8 7 7 7 8 8 8 9 9 9 9 8 9 9 10
11 11 11 11 11 10 10 10 10 10 11 10 10 10 9 9 9 9 10 10 10 9 9 9 8 8 8 8 8 9 8 8 8 9 9 9 10 9 8 9 9 9 10
10 11 11 11 10 10 10 10 10 10 10 10 10 10 10 9 9 10 10 10 10 10 10 10 9 9 10 10 10 10 9 9 9 9 9 9 10 9 9 9 9 10 10
9 10 11 10 10 10 10 10 10 10 10 10 10 10 10 11 11 11 11 11 11 11 11 11 11 11 11 11 11 11 11 10 11 11 10 10 10 9 9 10 10 11 11
9 9 10 10 10 10 10 10 11 11 11 11 11 11 11 11 12 12 12 12 11 11 12 12 12 12 12 13 13 14 13 12 11 11 11 11 11 11 10 11 11 11 11
9 9 10 10 10 10 10 10 11 11 11 11 11 11 11 11 12 12 13 13 13 13 13 13 14 14 14 15 15 15 15 14 13 13 12 12 12 13 12 12 11 12 11
9 9 9 10 10 11 11 10 11 12 12 13 12 12 12 13 13 13 14 15 15 15 15 15 15 16 16 16 16 16 16 15 15 14 13 13 14 14 15 14 13 13 13
9 9 9 10 11 11 12 12 11 11 12 13 13 13 13 14 15 15 15 15 16 16 16 17 16 16 17 17 17 17 17 16 15 15 15 15 16 15 15 15 15 15 15
9 10 10 11 12 12 12 13 13 12 13 14 14 14 15 15 16 16 16 16 16 17 17 17 18 18 18 18 19 18 18 17 17 16 16 17 17 17 16 16 16 17 17
Wind_Direction
1 3 5 4 5 359 1 189 213 224 231 236 239 240 238 239 240 236 233 237 241 245 242 242 245 249 253 259 263 265 262 257 256 252 246 241 238 232 232 231 235 240 243
357 360 7 4 4 2 359 143 176 227 242 247 251 248 241 239 244 242 240 240 242 247 243 241 245 250 258 262 265 264 266 263 253 249 238 235 234 231 233 235 236 240 242
0 358 4 6 7 5 348 286 239 254 259 260 257 251 241 240 241 239 239 238 243 246 243 244 248 254 262 265 265 265 269 267 257 244 234 231 230 231 229 233 236 241 243
3 3 5 5 8 8 357 321 262 265 273 269 273 260 246 243 240 234 235 238 240 240 242 242 245 254 263 264 263 263 269 267 258 241 231 228 227 231 232 234 237 240 239
7 6 8 10 8 2 347 308 283 283 286 271 286 278 251 241 238 231 235 239 242 241 241 244 249 254 259 261 262 262 260 260 249 238 232 226 223 230 234 234 235 236 239
13 13 10 14 12 5 355 322 291 292 294 274 276 286 261 244 236 233 231 243 247 242 242 246 252 258 260 259 260 261 252 245 242 236 235 227 222 226 226 231 235 238 241
13 15 16 17 14 12 8 350 324 304 282 276 295 304 273 239 235 235 234 239 245 245 247 259 262 266 271 265 264 268 253 246 243 227 228 226 227 231 227 228 238 245 245
16 20 20 22 16 17 14 355 333 314 322 348 27 348 309 231 214 230 246 249 252 251 259 266 272 273 275 275 272 268 257 254 248 233 226 231 238 235 228 235 244 256 258
21 26 27 30 19 15 12 5 359 353 357 6 18 40 31 81 90 269 259 254 259 259 265 270 277 276 276 278 274 265 259 255 248 243 240 238 238 238 241 253 254 257 263
20 21 27 22 18 19 15 21 21 39 33 22 39 46 59 78 70 19 295 267 270 270 276 286 290 290 285 282 279 268 261 254 242 245 249 243 236 240 244 253 256 257 260
20 23 25 22 14 19 18 21 26 37 38 31 34 34 45 56 41 21 0 315 296 292 296 311 309 293 287 286 280 269 267 261 249 250 247 246 242 243 246 250 249 256 261
20 21 22 25 20 19 18 19 25 32 27 33 45 35 39 46 38 20 355 328 310 297 299 310 314 300 291 293 293 274 269 262 269 256 250 244 243 248 249 248 250 258 264
20 20 19 19 23 20 19 21 26 27 39 44 54 41 38 37 24 16 6 356 355 328 310 310 311 315 307 296 304 288 262 250 273 285 273 260 254 251 250 259 259 263 267
18 18 16 17 18 16 18 24 25 29 38 44 50 44 39 33 24 19 17 14 2 346 328 317 313 317 320 324 314 300 282 263 275 277 269 269 268 261 261 267 267 263 267
18 17 15 16 17 17 17 22 29 39 42 42 39 34 32 32 29 31 26 17 15 8 355 338 334 334 319 315 311 305 302 303 282 269 267 278 280 275 269 272 269 267 273
21 20 18 18 22 25 25 31 40 41 40 40 38 32 33 31 27 21 18 15 19 15 4 350 344 343 343 331 322 321 313 308 304 292 289 287 288 287 281 280 282 285 283
21 22 23 24 29 33 35 36 40 43 42 38 34 32 32 30 25 19 15 11 12 7 7 359 352 345 343 338 331 329 325 316 309 307 305 305 305 303 297 292 291 290 290
21 22 24 26 30 33 34 36 37 37 36 31 29 25 24 22 17 16 10 7 6 2 2 1 356 349 341 336 332 332 328 318 317 313 309 309 308 307 306 297 292 289 288
21 22 23 24 25 26 30 31 28 24 25 25 24 20 18 13 7 7 8 7 3 2 359 357 352 344 340 335 334 331 327 323 318 315 310 311 312 313 308 302 295 292 290
17 18 20 20 20 19 20 21 19 18 19 21 19 13 8 3 4 4 4 2 357 354 352 349 347 343 338 332 327 328 325 319 316 316 315 314 314 313 308 299 294 292 290
6 11 14 14 14 15 15 14 15 14 11 9 8 8 5 3 2 358 353 353 351 349 346 342 339 337 334 331 329 325 321 316 312 310 309 311 312 313 304 292 288 287 287
353 357 2 6 9 10 9 8 6 4 2 0 1 2 359 355 354 352 349 347 345 343 340 336 333 331 330 327 324 321 321 317 313 312 308 307 306 307 305 293 292 291 292
341 348 352 356 357 357 358 0 3 0 359 359 356 356 354 351 350 348 344 343 340 335 333 330 328 328 327 326 323 321 319 316 317 315 311 309 305 304 302 298 293 294 296
332 339 344 344 345 345 344 345 350 351 351 353 353 352 351 348 345 343 340 338 336 333 330 329 325 323 322 321 319 317 315 315 314 312 309 308 308 307 305 300 297 296 294
322 325 332 336 340 342 339 335 338 341 343 344 346 346 345 343 341 339 337 334 333 331 328 326 324 322 319 318 314 313 313 310 309 306 304 303 302 303 301 299 297 294 291
312 313 319 326 330 333 333 332 333 333 334 335 336 337 337 337 337 336 335 332 330 328 326 324 323 320 317 314 311 310 308 306 306 303 301 299 299 298 298 298 297 294 290